Time,TemperatureF,DewpointF,PressureIn,WindDirection,WindDirectionDegrees,WindSpeedMPH,WindSpeedGustMPH,Humidity,HourlyPrecipIn,Conditions,Clouds,dailyrainin,SoftwareType,DateUTC
2013-11-12 00:01:00,45.4,33.1,29.95,SW,232,0.0,0.0,62,0.00,,,0.00,Wunderground v.1.12,2013-11-12 05:01:00,
2013-11-12 00:02:00,45.4,33.1,29.95,SW,229,0.0,0.0,62,0.00,,,0.00,Wunderground v.1.12,2013-11-12 05:02:00,
2013-11-12 00:04:00,45.4,33.5,29.95,SSW,207,1.0,1.0,63,0.00,,,0.00,Wunderground v.1.12,2013-11-12 05:04:00,
2013-11-12 00:09:00,45.4,33.5,29.95,SW,219,0.0,1.0,63,0.00,,,0.00,Wunderground v.1.12,2013-11-12 05:09:00,
2013-11-12 00:12:00,45.2,33.3,29.95,SW,228,0.0,1.0,63,0.00,,,0.00,Wunderground v.1.12,2013-11-12 05:12:00,
2013-11-12 00:17:00,45.2,33.3,29.95,SW,225,0.0,0.0,63,0.00,,,0.00,Wunderground v.1.12,2013-11-12 05:17:00,
2013-11-12 00:22:00,45.3,33.0,29.95,SSW,212,0.0,0.0,62,0.00,,,0.00,Wunderground v.1.12,2013-11-12 05:22:00,
2013-11-12 00:27:00,45.5,33.2,29.95,SW,217,0.0,0.0,62,0.00,,,0.00,Wunderground v.1.12,2013-11-12 05:27:00,
2013-11-12 00:32:00,45.5,33.2,29.95,SW,227,0.0,0.0,62,0.00,,,0.00,Wunderground v.1.12,2013-11-12 05:32:00,
2013-11-12 00:34:00,45.5,33.6,29.95,SW,227,0.0,0.0,63,0.00,,,0.00,Wunderground v.1.12,2013-11-12 05:34:00,
2013-11-12 00:39:00,45.6,32.9,29.94,SW,222,0.0,1.0,61,0.00,,,0.00,Wunderground v.1.12,2013-11-12 05:39:00,
2013-11-12 00:45:00,45.8,33.1,29.94,SW,223,0.0,0.0,61,0.00,,,0.00,Wunderground v.1.12,2013-11-12 05:45:00,
2013-11-12 00:51:00,45.8,33.1,29.93,SSW,211,1.0,1.0,61,0.00,,,0.00,Wunderground v.1.12,2013-11-12 05:51:00,
2013-11-12 00:56:00,45.8,33.1,29.93,SW,217,1.0,1.0,61,0.00,,,0.00,Wunderground v.1.12,2013-11-12 05:56:00,
2013-11-12 01:01:00,45.8,32.7,29.93,SW,221,0.0,0.0,60,0.00,,,0.00,Wunderground v.1.12,2013-11-12 06:01:00,
2013-11-12 01:07:00,45.8,32.7,29.93,SW,232,0.0,1.0,60,0.00,,,0.00,Wunderground v.1.12,2013-11-12 06:07:00,
2013-11-12 01:14:00,45.8,32.3,29.93,SW,215,0.0,1.0,59,0.00,,,0.00,Wunderground v.1.12,2013-11-12 06:14:00,
2013-11-12 01:19:00,45.9,32.4,29.93,SW,227,0.0,1.0,59,0.00,,,0.00,Wunderground v.1.12,2013-11-12 06:19:00,
2013-11-12 01:24:00,45.9,32.4,29.93,SW,218,0.0,1.0,59,0.00,,,0.00,Wunderground v.1.12,2013-11-12 06:24:00,
2013-11-12 01:29:00,45.8,32.3,29.93,WSW,240,0.0,1.0,59,0.00,,,0.00,Wunderground v.1.12,2013-11-12 06:29:00,
2013-11-12 01:35:00,45.7,32.2,29.93,SW,221,0.0,1.0,59,0.00,,,0.00,Wunderground v.1.12,2013-11-12 06:35:00,
2013-11-12 01:41:00,45.6,32.1,29.93,SW,218,1.0,1.0,59,0.00,,,0.00,Wunderground v.1.12,2013-11-12 06:41:00,
2013-11-12 01:47:00,45.6,32.1,29.93,SW,223,0.0,0.0,59,0.00,,,0.00,Wunderground v.1.12,2013-11-12 06:47:00,
2013-11-12 01:52:00,45.5,32.0,29.93,SW,225,0.0,0.0,59,0.00,,,0.00,Wunderground v.1.12,2013-11-12 06:52:00,
2013-11-12 01:59:00,45.5,32.0,29.93,SW,219,0.0,1.0,59,0.00,,,0.00,Wunderground v.1.12,2013-11-12 06:59:00,
2013-11-12 02:04:00,45.5,32.0,29.93,SSW,196,0.0,1.0,59,0.00,,,0.00,Wunderground v.1.12,2013-11-12 07:04:00,
2013-11-12 02:10:00,45.6,31.7,29.93,SW,217,0.0,2.0,58,0.00,,,0.00,Wunderground v.1.12,2013-11-12 07:10:00,
2013-11-12 02:15:00,45.6,31.7,29.93,SW,223,0.0,1.0,58,0.00,,,0.00,Wunderground v.1.12,2013-11-12 07:15:00,
2013-11-12 02:20:00,45.6,31.2,29.93,SW,228,0.0,2.0,57,0.00,,,0.00,Wunderground v.1.12,2013-11-12 07:20:00,
2013-11-12 02:25:00,45.7,31.3,29.93,SSE,158,3.0,4.0,57,0.00,,,0.00,Wunderground v.1.12,2013-11-12 07:25:00,
2013-11-12 02:30:00,45.6,31.2,29.93,SSW,211,2.0,4.0,57,0.00,,,0.00,Wunderground v.1.12,2013-11-12 07:30:00,
2013-11-12 02:35:00,45.5,31.1,29.93,South,172,3.0,4.0,57,0.00,,,0.00,Wunderground v.1.12,2013-11-12 07:35:00,
2013-11-12 02:40:00,45.5,31.6,29.93,SSW,208,3.0,5.0,58,0.00,,,0.00,Wunderground v.1.12,2013-11-12 07:40:00,
2013-11-12 02:45:00,45.3,31.4,29.93,South,180,2.0,5.0,58,0.00,,,0.00,Wunderground v.1.12,2013-11-12 07:45:00,
2013-11-12 02:50:00,45.1,31.6,29.93,SSW,210,1.0,6.0,59,0.00,,,0.00,Wunderground v.1.12,2013-11-12 07:50:00,
2013-11-12 02:55:00,45.0,31.9,29.92,SE,131,3.0,4.0,60,0.00,,,0.00,Wunderground v.1.12,2013-11-12 07:55:00,
2013-11-12 03:00:00,44.8,32.2,29.92,SW,226,5.0,5.0,61,0.00,,,0.00,Wunderground v.1.12,2013-11-12 08:00:00,
2013-11-12 03:05:00,44.7,32.1,29.92,SW,215,2.0,3.0,61,0.00,,,0.00,Wunderground v.1.12,2013-11-12 08:05:00,
2013-11-12 03:10:00,44.5,32.3,29.90,ESE,111,4.0,4.0,62,0.00,,,0.00,Wunderground v.1.12,2013-11-12 08:10:00,
2013-11-12 03:15:00,44.5,32.7,29.90,SSW,199,3.0,3.0,63,0.00,,,0.00,Wunderground v.1.12,2013-11-12 08:15:00,
2013-11-12 03:20:00,44.4,32.6,29.90,SW,214,1.0,1.0,63,0.00,,,0.00,Wunderground v.1.12,2013-11-12 08:20:00,
2013-11-12 03:25:00,44.3,32.9,29.92,South,184,2.0,2.0,64,0.00,,,0.00,Wunderground v.1.12,2013-11-12 08:25:00,
2013-11-12 03:30:00,44.2,32.8,29.92,SW,216,3.0,3.0,64,0.00,,,0.00,Wunderground v.1.12,2013-11-12 08:30:00,
2013-11-12 03:35:00,44.1,33.1,29.92,SW,234,0.0,2.0,65,0.00,,,0.00,Wunderground v.1.12,2013-11-12 08:35:00,
2013-11-12 03:40:00,43.9,33.3,29.92,WSW,244,1.0,4.0,66,0.00,,,0.00,Wunderground v.1.12,2013-11-12 08:40:00,
2013-11-12 03:46:00,42.1,32.3,29.92,South,184,2.0,2.0,68,0.00,,,0.00,Wunderground v.1.12,2013-11-12 08:46:00,
2013-11-12 03:51:00,39.5,31.6,29.92,SE,139,3.0,3.0,73,0.00,,,0.00,Wunderground v.1.12,2013-11-12 08:51:00,
2013-11-12 03:56:00,37.9,30.7,29.96,SSW,198,3.0,5.0,75,0.00,,,0.00,Wunderground v.1.12,2013-11-12 08:56:00,
2013-11-12 04:01:00,36.4,29.9,29.96,South,188,2.0,3.0,77,0.00,,,0.00,Wunderground v.1.12,2013-11-12 09:01:00,
2013-11-12 04:06:00,35.5,29.3,29.96,South,186,3.0,3.0,78,0.00,,,0.00,Wunderground v.1.12,2013-11-12 09:06:00,
2013-11-12 04:11:00,34.9,28.7,29.97,SW,216,1.0,3.0,78,0.00,,,0.00,Wunderground v.1.12,2013-11-12 09:11:00,
2013-11-12 04:16:00,34.5,28.7,29.97,South,185,2.0,3.0,79,0.00,,,0.00,Wunderground v.1.12,2013-11-12 09:16:00,
2013-11-12 04:21:00,34.1,28.6,29.99,SW,230,2.0,4.0,80,0.00,,,0.00,Wunderground v.1.12,2013-11-12 09:21:00,
2013-11-12 04:26:00,33.8,28.6,29.99,South,185,2.0,3.0,81,0.00,,,0.00,Wunderground v.1.12,2013-11-12 09:26:00,
2013-11-12 04:31:00,33.6,28.4,29.99,South,180,3.0,3.0,81,0.00,,,0.00,Wunderground v.1.12,2013-11-12 09:31:00,
2013-11-12 04:36:00,33.4,28.5,30.00,SSW,213,2.0,3.0,82,0.00,,,0.00,Wunderground v.1.12,2013-11-12 09:36:00,
2013-11-12 04:41:00,33.3,28.4,30.00,SW,228,0.0,4.0,82,0.00,,,0.00,Wunderground v.1.12,2013-11-12 09:41:00,
2013-11-12 04:46:00,33.1,28.5,30.00,SSW,198,2.0,2.0,83,0.00,,,0.00,Wunderground v.1.12,2013-11-12 09:46:00,
2013-11-12 04:51:00,33.0,28.7,30.00,SSW,207,1.0,2.0,84,0.00,,,0.00,Wunderground v.1.12,2013-11-12 09:51:00,
2013-11-12 04:56:00,32.9,28.6,30.00,South,188,2.0,3.0,84,0.00,,,0.00,Wunderground v.1.12,2013-11-12 09:56:00,
2013-11-12 05:01:00,32.8,28.5,30.00,SSW,194,2.0,3.0,84,0.00,,,0.00,Wunderground v.1.12,2013-11-12 10:01:00,
2013-11-12 05:06:00,32.8,28.5,30.01,SW,220,1.0,2.0,84,0.00,,,0.00,Wunderground v.1.12,2013-11-12 10:06:00,
2013-11-12 05:11:00,32.7,28.4,30.01,South,170,2.0,2.0,84,0.00,,,0.00,Wunderground v.1.12,2013-11-12 10:11:00,
2013-11-12 05:16:00,32.7,28.7,30.01,SW,221,1.0,2.0,85,0.00,,,0.00,Wunderground v.1.12,2013-11-12 10:16:00,
2013-11-12 05:21:00,32.7,28.4,30.02,SW,219,1.0,2.0,84,0.00,,,0.00,Wunderground v.1.12,2013-11-12 10:21:00,
2013-11-12 05:26:00,32.7,28.4,30.02,SW,220,0.0,1.0,84,0.00,,,0.00,Wunderground v.1.12,2013-11-12 10:26:00,
2013-11-12 05:32:00,32.6,28.3,30.02,SW,215,0.0,2.0,84,0.00,,,0.00,Wunderground v.1.12,2013-11-12 10:32:00,
2013-11-12 05:37:00,32.4,28.4,30.03,SW,225,1.0,1.0,85,0.00,,,0.00,Wunderground v.1.12,2013-11-12 10:37:00,
2013-11-12 05:42:00,32.2,28.5,30.03,SW,222,1.0,1.0,86,0.00,,,0.00,Wunderground v.1.12,2013-11-12 10:42:00,
2013-11-12 05:47:00,32.1,28.7,30.03,SW,230,0.0,1.0,87,0.00,,,0.00,Wunderground v.1.12,2013-11-12 10:47:00,
2013-11-12 05:52:00,32.0,28.6,30.04,WSW,238,0.0,1.0,87,0.00,,,0.00,Wunderground v.1.12,2013-11-12 10:52:00,
2013-11-12 05:57:00,31.8,28.1,30.04,SSW,213,3.0,3.0,86,0.00,,,0.00,Wunderground v.1.12,2013-11-12 10:57:00,
2013-11-12 06:02:00,31.6,27.0,30.04,SW,214,3.0,3.0,83,0.00,,,0.00,Wunderground v.1.12,2013-11-12 11:02:00,
2013-11-12 06:07:00,31.3,24.9,30.05,SSW,204,3.0,4.0,77,0.00,,,0.00,Wunderground v.1.12,2013-11-12 11:07:00,
2013-11-12 06:12:00,31.0,24.6,30.05,WSW,237,1.0,5.0,77,0.00,,,0.00,Wunderground v.1.12,2013-11-12 11:12:00,
2013-11-12 06:17:00,30.8,24.4,30.05,SW,217,0.0,2.0,77,0.00,,,0.00,Wunderground v.1.12,2013-11-12 11:17:00,
2013-11-12 06:22:00,30.5,24.5,30.04,SW,226,1.0,3.0,78,0.00,,,0.00,Wunderground v.1.12,2013-11-12 11:22:00,
2013-11-12 06:27:00,30.2,24.2,30.04,South,182,2.0,3.0,78,0.00,,,0.00,Wunderground v.1.12,2013-11-12 11:27:00,
2013-11-12 06:32:00,30.1,24.1,30.04,SW,225,0.0,2.0,78,0.00,,,0.00,Wunderground v.1.12,2013-11-12 11:32:00,
2013-11-12 06:38:00,30.2,23.5,30.06,SW,219,1.0,4.0,76,0.00,,,0.00,Wunderground v.1.12,2013-11-12 11:38:00,
2013-11-12 06:43:00,30.3,23.3,30.06,SW,218,2.0,3.0,75,0.00,,,0.00,Wunderground v.1.12,2013-11-12 11:43:00,
2013-11-12 06:48:00,30.4,22.8,30.06,SSW,211,3.0,6.0,73,0.00,,,0.00,Wunderground v.1.12,2013-11-12 11:48:00,
2013-11-12 06:53:00,30.4,22.8,30.07,South,188,1.0,5.0,73,0.00,,,0.00,Wunderground v.1.12,2013-11-12 11:53:00,
2013-11-12 06:58:00,30.3,22.4,30.07,SSW,213,1.0,3.0,72,0.00,,,0.00,Wunderground v.1.12,2013-11-12 11:58:00,
2013-11-12 07:03:00,30.2,22.6,30.07,South,184,2.0,4.0,73,0.00,,,0.00,Wunderground v.1.12,2013-11-12 12:03:00,
2013-11-12 07:08:00,30.1,22.8,30.08,SSW,209,1.0,3.0,74,0.00,,,0.00,Wunderground v.1.12,2013-11-12 12:08:00,
2013-11-12 07:14:00,30.0,23.0,30.08,SW,228,0.0,2.0,75,0.00,,,0.00,Wunderground v.1.12,2013-11-12 12:14:00,
2013-11-12 07:20:00,29.9,22.9,30.08,SSW,196,1.0,3.0,75,0.00,,,0.00,Wunderground v.1.12,2013-11-12 12:20:00,
2013-11-12 07:25:00,29.9,22.6,30.09,SSW,203,1.0,2.0,74,0.00,,,0.00,Wunderground v.1.12,2013-11-12 12:25:00,
2013-11-12 07:30:00,29.8,22.8,30.09,SW,234,2.0,3.0,75,0.00,,,0.00,Wunderground v.1.12,2013-11-12 12:30:00,
2013-11-12 07:35:00,29.9,22.3,30.09,SW,230,0.0,3.0,73,0.00,,,0.00,Wunderground v.1.12,2013-11-12 12:35:00,
2013-11-12 07:40:00,29.9,21.6,30.10,SW,229,1.0,2.0,71,0.00,,,0.00,Wunderground v.1.12,2013-11-12 12:40:00,
2013-11-12 07:45:00,30.0,21.1,30.10,SSW,209,0.0,3.0,69,0.00,,,0.00,Wunderground v.1.12,2013-11-12 12:45:00,
2013-11-12 07:50:00,30.0,20.4,30.10,SSW,211,1.0,2.0,67,0.00,,,0.00,Wunderground v.1.12,2013-11-12 12:50:00,
2013-11-12 07:55:00,30.0,20.4,30.12,SW,214,1.0,6.0,67,0.00,,,0.00,Wunderground v.1.12,2013-11-12 12:55:00,
2013-11-12 08:00:00,30.0,19.7,30.12,SW,229,1.0,2.0,65,0.00,,,0.00,Wunderground v.1.12,2013-11-12 13:00:00,
2013-11-12 08:05:00,30.0,19.3,30.12,SW,219,1.0,3.0,64,0.00,,,0.00,Wunderground v.1.12,2013-11-12 13:05:00,
2013-11-12 08:10:00,30.0,19.7,30.12,SW,217,1.0,3.0,65,0.00,,,0.00,Wunderground v.1.12,2013-11-12 13:10:00,
2013-11-12 08:15:00,30.0,19.3,30.12,SW,216,1.0,2.0,64,0.00,,,0.00,Wunderground v.1.12,2013-11-12 13:15:00,
2013-11-12 08:20:00,30.0,18.5,30.12,SSW,213,0.0,2.0,62,0.00,,,0.00,Wunderground v.1.12,2013-11-12 13:20:00,
2013-11-12 08:25:00,30.0,18.5,30.12,SW,225,1.0,3.0,62,0.00,,,0.00,Wunderground v.1.12,2013-11-12 13:25:00,
2013-11-12 08:30:00,30.1,19.0,30.12,SW,221,0.0,2.0,63,0.00,,,0.00,Wunderground v.1.12,2013-11-12 13:30:00,
2013-11-12 08:35:00,30.1,18.6,30.12,South,170,2.0,2.0,62,0.00,,,0.00,Wunderground v.1.12,2013-11-12 13:35:00,
2013-11-12 08:40:00,30.2,19.1,30.13,SW,223,1.0,1.0,63,0.00,,,0.00,Wunderground v.1.12,2013-11-12 13:40:00,
2013-11-12 08:45:00,30.2,18.7,30.13,SSE,158,1.0,1.0,62,0.00,,,0.00,Wunderground v.1.12,2013-11-12 13:45:00,
2013-11-12 08:50:00,30.2,18.7,30.13,SW,223,0.0,3.0,62,0.00,,,0.00,Wunderground v.1.12,2013-11-12 13:50:00,
2013-11-12 08:55:00,30.3,18.8,30.14,WSW,248,0.0,1.0,62,0.00,,,0.00,Wunderground v.1.12,2013-11-12 13:55:00,
2013-11-12 09:01:00,30.2,18.7,30.14,SW,214,1.0,1.0,62,0.00,,,0.00,Wunderground v.1.12,2013-11-12 14:01:00,
2013-11-12 09:06:00,30.3,18.8,30.14,SW,223,0.0,1.0,62,0.00,,,0.00,Wunderground v.1.12,2013-11-12 14:06:00,
2013-11-12 09:11:00,30.4,18.9,30.14,SSE,157,3.0,4.0,62,0.00,,,0.00,Wunderground v.1.12,2013-11-12 14:11:00,
2013-11-12 09:16:00,30.5,19.4,30.14,SW,236,0.0,1.0,63,0.00,,,0.00,Wunderground v.1.12,2013-11-12 14:16:00,
2013-11-12 09:21:00,30.5,19.0,30.14,SSW,209,1.0,1.0,62,0.00,,,0.00,Wunderground v.1.12,2013-11-12 14:21:00,
2013-11-12 09:26:00,30.7,19.6,30.14,WSW,256,0.0,1.0,63,0.00,,,0.00,Wunderground v.1.12,2013-11-12 14:26:00,
2013-11-12 09:31:00,30.7,19.6,30.14,SW,217,1.0,1.0,63,0.00,,,0.00,Wunderground v.1.12,2013-11-12 14:31:00,
2013-11-12 09:36:00,30.8,19.3,30.15,South,188,3.0,6.0,62,0.00,,,0.00,Wunderground v.1.12,2013-11-12 14:36:00,
2013-11-12 09:41:00,30.7,19.6,30.15,SW,217,1.0,1.0,63,0.00,,,0.00,Wunderground v.1.12,2013-11-12 14:41:00,
2013-11-12 09:46:00,30.7,20.0,30.15,SSW,209,0.0,1.0,64,0.00,,,0.00,Wunderground v.1.12,2013-11-12 14:46:00,
2013-11-12 09:51:00,30.6,19.5,30.15,SSE,164,1.0,2.0,63,0.00,,,0.00,Wunderground v.1.12,2013-11-12 14:51:00,
2013-11-12 09:57:00,30.6,19.5,30.15,WSW,255,1.0,3.0,63,0.00,,,0.00,Wunderground v.1.12,2013-11-12 14:57:00,
2013-11-12 10:02:00,30.6,18.7,30.15,SW,220,0.0,2.0,61,0.00,,,0.00,Wunderground v.1.12,2013-11-12 15:02:00,
2013-11-12 10:07:00,30.8,18.9,30.16,SSW,198,2.0,2.0,61,0.00,,,0.00,Wunderground v.1.12,2013-11-12 15:07:00,
2013-11-12 10:12:00,30.7,18.4,30.16,SSW,211,1.0,2.0,60,0.00,,,0.00,Wunderground v.1.12,2013-11-12 15:12:00,
2013-11-12 10:17:00,30.9,18.6,30.16,SW,219,0.0,1.0,60,0.00,,,0.00,Wunderground v.1.12,2013-11-12 15:17:00,
2013-11-12 10:22:00,31.2,19.3,30.16,SSW,206,1.0,1.0,61,0.00,,,0.00,Wunderground v.1.12,2013-11-12 15:22:00,
2013-11-12 10:27:00,31.0,18.3,30.16,SSW,207,1.0,2.0,59,0.00,,,0.00,Wunderground v.1.12,2013-11-12 15:27:00,
2013-11-12 10:32:00,30.8,18.1,30.16,SSW,195,3.0,4.0,59,0.00,,,0.00,Wunderground v.1.12,2013-11-12 15:32:00,
2013-11-12 10:37:00,30.8,18.9,30.16,SSW,201,0.0,1.0,61,0.00,,,0.00,Wunderground v.1.12,2013-11-12 15:37:00,
2013-11-12 10:42:00,30.7,18.1,30.16,SSW,196,1.0,2.0,59,0.00,,,0.00,Wunderground v.1.12,2013-11-12 15:42:00,
2013-11-12 10:47:00,30.4,17.4,30.16,SSW,211,1.0,3.0,58,0.00,,,0.00,Wunderground v.1.12,2013-11-12 15:47:00,
2013-11-12 10:52:00,30.4,17.8,30.16,SW,214,1.0,2.0,59,0.00,,,0.00,Wunderground v.1.12,2013-11-12 15:52:00,
2013-11-12 10:57:00,30.5,17.5,30.16,South,171,2.0,5.0,58,0.00,,,0.00,Wunderground v.1.12,2013-11-12 15:57:00,
2013-11-12 11:02:00,30.5,17.5,30.16,SW,217,1.0,3.0,58,0.00,,,0.00,Wunderground v.1.12,2013-11-12 16:02:00,
2013-11-12 11:07:00,30.7,17.3,30.16,South,188,1.0,2.0,57,0.00,,,0.00,Wunderground v.1.12,2013-11-12 16:07:00,
2013-11-12 11:12:00,30.8,17.3,30.16,SSW,207,1.0,1.0,57,0.00,,,0.00,Wunderground v.1.12,2013-11-12 16:12:00,
2013-11-12 11:17:00,30.9,17.8,30.16,WSW,237,0.0,2.0,58,0.00,,,0.00,Wunderground v.1.12,2013-11-12 16:17:00,
2013-11-12 11:22:00,30.9,17.0,30.16,SW,228,2.0,2.0,56,0.00,,,0.00,Wunderground v.1.12,2013-11-12 16:22:00,
2013-11-12 11:28:00,30.8,16.5,30.16,South,188,1.0,4.0,55,0.00,,,0.00,Wunderground v.1.12,2013-11-12 16:28:00,
2013-11-12 11:33:00,30.9,17.0,30.16,South,186,2.0,2.0,56,0.00,,,0.00,Wunderground v.1.12,2013-11-12 16:33:00,
2013-11-12 11:38:00,31.0,17.1,30.16,SW,218,1.0,2.0,56,0.00,,,0.00,Wunderground v.1.12,2013-11-12 16:38:00,
2013-11-12 11:43:00,31.1,16.8,30.16,SW,221,0.0,3.0,55,0.00,,,0.00,Wunderground v.1.12,2013-11-12 16:43:00,
2013-11-12 11:48:00,31.1,17.2,30.16,SW,222,1.0,1.0,56,0.00,,,0.00,Wunderground v.1.12,2013-11-12 16:48:00,
2013-11-12 11:53:00,31.1,16.4,30.16,SW,217,2.0,4.0,54,0.00,,,0.00,Wunderground v.1.12,2013-11-12 16:53:00,
2013-11-12 11:58:00,30.9,16.6,30.16,SSW,212,2.0,3.0,55,0.00,,,0.00,Wunderground v.1.12,2013-11-12 16:58:00,
2013-11-12 12:04:00,30.9,17.0,30.16,SW,216,2.0,2.0,56,0.00,,,0.00,Wunderground v.1.12,2013-11-12 17:04:00,
2013-11-12 12:10:00,30.9,17.4,30.16,SSW,202,1.0,2.0,57,0.00,,,0.00,Wunderground v.1.12,2013-11-12 17:10:00,
2013-11-12 12:15:00,31.0,17.5,30.16,SW,217,0.0,3.0,57,0.00,,,0.00,Wunderground v.1.12,2013-11-12 17:15:00,
2013-11-12 12:20:00,31.0,17.5,30.16,East,80,3.0,3.0,57,0.00,,,0.00,Wunderground v.1.12,2013-11-12 17:20:00,
2013-11-12 12:25:00,30.9,17.8,30.16,SW,224,1.0,4.0,58,0.00,,,0.00,Wunderground v.1.12,2013-11-12 17:25:00,
2013-11-12 12:30:00,30.8,17.3,30.16,SSW,213,0.0,4.0,57,0.00,,,0.00,Wunderground v.1.12,2013-11-12 17:30:00,
2013-11-12 12:35:00,30.6,17.2,30.16,South,182,2.0,2.0,57,0.00,,,0.00,Wunderground v.1.12,2013-11-12 17:35:00,
2013-11-12 12:40:00,30.6,17.6,30.16,SSW,198,1.0,1.0,58,0.00,,,0.00,Wunderground v.1.12,2013-11-12 17:40:00,
2013-11-12 12:45:00,30.6,16.7,30.16,South,189,1.0,1.0,56,0.00,,,0.00,Wunderground v.1.12,2013-11-12 17:45:00,
2013-11-12 12:51:00,30.5,15.8,30.16,SSE,151,2.0,3.0,54,0.00,,,0.00,Wunderground v.1.12,2013-11-12 17:51:00,
2013-11-12 12:56:00,30.4,15.3,30.16,SW,217,1.0,2.0,53,0.00,,,0.00,Wunderground v.1.12,2013-11-12 17:56:00,
2013-11-12 13:01:00,30.2,15.5,30.16,SW,225,1.0,2.0,54,0.00,,,0.00,Wunderground v.1.12,2013-11-12 18:01:00,
2013-11-12 13:06:00,30.5,16.2,30.16,SSW,213,1.0,2.0,55,0.00,,,0.00,Wunderground v.1.12,2013-11-12 18:06:00,
2013-11-12 13:11:00,30.5,15.8,30.16,SW,217,0.0,1.0,54,0.00,,,0.00,Wunderground v.1.12,2013-11-12 18:11:00,
2013-11-12 13:16:00,30.4,15.7,30.16,SW,218,2.0,3.0,54,0.00,,,0.00,Wunderground v.1.12,2013-11-12 18:16:00,
2013-11-12 13:21:00,30.3,16.0,30.16,South,183,2.0,2.0,55,0.00,,,0.00,Wunderground v.1.12,2013-11-12 18:21:00,
2013-11-12 13:26:00,30.6,16.7,30.16,SW,235,1.0,2.0,56,0.00,,,0.00,Wunderground v.1.12,2013-11-12 18:26:00,
2013-11-12 13:31:00,30.7,16.4,30.16,SSW,211,1.0,2.0,55,0.00,,,0.00,Wunderground v.1.12,2013-11-12 18:31:00,
2013-11-12 13:36:00,30.7,16.8,30.16,WSW,238,0.0,1.0,56,0.00,,,0.00,Wunderground v.1.12,2013-11-12 18:36:00,
2013-11-12 13:41:00,30.7,16.4,30.16,SW,230,1.0,3.0,55,0.00,,,0.00,Wunderground v.1.12,2013-11-12 18:41:00,
2013-11-12 13:47:00,30.8,16.5,30.16,SSE,161,2.0,2.0,55,0.00,,,0.00,Wunderground v.1.12,2013-11-12 18:47:00,
2013-11-12 13:52:00,30.7,16.4,30.17,South,188,2.0,2.0,55,0.00,,,0.00,Wunderground v.1.12,2013-11-12 18:52:00,
2013-11-12 13:57:00,30.7,16.4,30.17,SSW,200,2.0,2.0,55,0.00,,,0.00,Wunderground v.1.12,2013-11-12 18:57:00,
2013-11-12 14:02:00,30.8,16.5,30.17,SSW,209,2.0,2.0,55,0.00,,,0.00,Wunderground v.1.12,2013-11-12 19:02:00,
2013-11-12 14:07:00,30.9,16.6,30.17,SW,216,1.0,2.0,55,0.00,,,0.00,Wunderground v.1.12,2013-11-12 19:07:00,
2013-11-12 14:12:00,30.9,16.2,30.17,SSW,207,1.0,3.0,54,0.00,,,0.00,Wunderground v.1.12,2013-11-12 19:12:00,
2013-11-12 14:17:00,30.8,15.7,30.17,SSE,164,2.0,3.0,53,0.00,,,0.00,Wunderground v.1.12,2013-11-12 19:17:00,
2013-11-12 14:22:00,30.9,16.2,30.17,SW,221,1.0,3.0,54,0.00,,,0.00,Wunderground v.1.12,2013-11-12 19:22:00,
2013-11-12 14:27:00,31.0,15.8,30.17,ESE,120,2.0,2.0,53,0.00,,,0.00,Wunderground v.1.12,2013-11-12 19:27:00,
2013-11-12 14:32:00,31.1,15.9,30.17,SW,219,1.0,2.0,53,0.00,,,0.00,Wunderground v.1.12,2013-11-12 19:32:00,
2013-11-12 14:37:00,31.3,16.1,30.17,SSW,202,1.0,3.0,53,0.00,,,0.00,Wunderground v.1.12,2013-11-12 19:37:00,
2013-11-12 14:42:00,31.2,16.0,30.17,SSW,213,1.0,3.0,53,0.00,,,0.00,Wunderground v.1.12,2013-11-12 19:42:00,
2013-11-12 14:47:00,31.3,16.6,30.17,South,175,1.0,1.0,54,0.00,,,0.00,Wunderground v.1.12,2013-11-12 19:47:00,
2013-11-12 14:52:00,31.3,16.6,30.18,SSW,202,1.0,2.0,54,0.00,,,0.00,Wunderground v.1.12,2013-11-12 19:52:00,
2013-11-12 14:57:00,31.3,16.1,30.18,SSW,207,1.0,4.0,53,0.00,,,0.00,Wunderground v.1.12,2013-11-12 19:57:00,
2013-11-12 15:02:00,31.3,16.1,30.18,WSW,237,1.0,2.0,53,0.00,,,0.00,Wunderground v.1.12,2013-11-12 20:02:00,
2013-11-12 15:07:00,31.4,16.2,30.19,SSW,211,1.0,3.0,53,0.00,,,0.00,Wunderground v.1.12,2013-11-12 20:07:00,
2013-11-12 15:12:00,31.4,16.2,30.19,SSW,212,1.0,3.0,53,0.00,,,0.00,Wunderground v.1.12,2013-11-12 20:12:00,
2013-11-12 15:17:00,31.4,16.2,30.19,SW,214,1.0,1.0,53,0.00,,,0.00,Wunderground v.1.12,2013-11-12 20:17:00,
2013-11-12 15:23:00,31.4,16.2,30.20,SSW,206,1.0,2.0,53,0.00,,,0.00,Wunderground v.1.12,2013-11-12 20:23:00,
2013-11-12 15:28:00,31.3,16.1,30.20,SSW,207,1.0,2.0,53,0.00,,,0.00,Wunderground v.1.12,2013-11-12 20:28:00,
2013-11-12 15:33:00,31.0,15.8,30.20,SW,217,0.0,4.0,53,0.00,,,0.00,Wunderground v.1.12,2013-11-12 20:33:00,
2013-11-12 15:38:00,30.9,15.8,30.20,SSW,195,1.0,3.0,53,0.00,,,0.00,Wunderground v.1.12,2013-11-12 20:38:00,
2013-11-12 15:43:00,30.8,16.1,30.20,SSW,204,1.0,3.0,54,0.00,,,0.00,Wunderground v.1.12,2013-11-12 20:43:00,
2013-11-12 15:48:00,30.7,16.0,30.20,SW,219,1.0,2.0,54,0.00,,,0.00,Wunderground v.1.12,2013-11-12 20:48:00,
2013-11-12 15:53:00,30.7,16.0,30.21,SW,219,0.0,2.0,54,0.00,,,0.00,Wunderground v.1.12,2013-11-12 20:53:00,
2013-11-12 15:58:00,30.6,15.9,30.21,East,93,2.0,3.0,54,0.00,,,0.00,Wunderground v.1.12,2013-11-12 20:58:00,
2013-11-12 16:03:00,30.5,15.8,30.21,SW,220,1.0,3.0,54,0.00,,,0.00,Wunderground v.1.12,2013-11-12 21:03:00,
2013-11-12 16:08:00,30.3,15.6,30.23,South,182,1.0,4.0,54,0.00,,,0.00,Wunderground v.1.12,2013-11-12 21:08:00,
2013-11-12 16:14:00,30.2,16.0,30.23,SW,223,0.0,4.0,55,0.00,,,0.00,Wunderground v.1.12,2013-11-12 21:14:00,
2013-11-12 16:20:00,30.0,15.8,30.23,South,179,2.0,3.0,55,0.00,,,0.00,Wunderground v.1.12,2013-11-12 21:20:00,
2013-11-12 16:25:00,29.9,16.1,30.24,SW,220,2.0,4.0,56,0.00,,,0.00,Wunderground v.1.12,2013-11-12 21:25:00,
2013-11-12 16:30:00,29.7,15.9,30.24,SW,225,2.0,5.0,56,0.00,,,0.00,Wunderground v.1.12,2013-11-12 21:30:00,
2013-11-12 16:35:00,29.6,15.8,30.24,SSW,194,2.0,2.0,56,0.00,,,0.00,Wunderground v.1.12,2013-11-12 21:35:00,
2013-11-12 16:40:00,29.5,16.1,30.24,South,181,1.0,2.0,57,0.00,,,0.00,Wunderground v.1.12,2013-11-12 21:40:00,
2013-11-12 16:45:00,29.4,15.6,30.24,SSW,195,1.0,4.0,56,0.00,,,0.00,Wunderground v.1.12,2013-11-12 21:45:00,
2013-11-12 16:50:00,29.3,15.9,30.24,SSW,192,1.0,2.0,57,0.00,,,0.00,Wunderground v.1.12,2013-11-12 21:50:00,
2013-11-12 16:55:00,29.2,15.8,30.24,South,178,2.0,2.0,57,0.00,,,0.00,Wunderground v.1.12,2013-11-12 21:55:00,
2013-11-12 17:00:00,29.2,15.4,30.24,South,178,3.0,3.0,56,0.00,,,0.00,Wunderground v.1.12,2013-11-12 22:00:00,
2013-11-12 17:05:00,29.0,15.7,30.24,South,181,2.0,2.0,57,0.00,,,0.00,Wunderground v.1.12,2013-11-12 22:05:00,
2013-11-12 17:10:00,28.9,15.6,30.25,SW,217,1.0,1.0,57,0.00,,,0.00,Wunderground v.1.12,2013-11-12 22:10:00,
2013-11-12 17:15:00,28.8,15.5,30.25,SW,220,1.0,1.0,57,0.00,,,0.00,Wunderground v.1.12,2013-11-12 22:15:00,
2013-11-12 17:20:00,28.7,15.4,30.25,SSW,209,1.0,2.0,57,0.00,,,0.00,Wunderground v.1.12,2013-11-12 22:20:00,
2013-11-12 17:25:00,28.6,15.7,30.26,SW,223,1.0,2.0,58,0.00,,,0.00,Wunderground v.1.12,2013-11-12 22:25:00,
2013-11-12 17:30:00,28.6,15.3,30.26,SW,214,1.0,1.0,57,0.00,,,0.00,Wunderground v.1.12,2013-11-12 22:30:00,
2013-11-12 17:36:00,28.4,15.5,30.26,SW,228,1.0,1.0,58,0.00,,,0.00,Wunderground v.1.12,2013-11-12 22:36:00,
2013-11-12 17:41:00,28.3,15.8,30.27,SW,219,0.0,0.0,59,0.00,,,0.00,Wunderground v.1.12,2013-11-12 22:41:00,
2013-11-12 17:46:00,28.2,15.7,30.27,SW,223,0.0,2.0,59,0.00,,,0.00,Wunderground v.1.12,2013-11-12 22:46:00,
2013-11-12 17:51:00,28.2,15.7,30.28,SW,219,0.0,1.0,59,0.00,,,0.00,Wunderground v.1.12,2013-11-12 22:51:00,
2013-11-12 17:56:00,28.1,15.6,30.28,SW,230,0.0,1.0,59,0.00,,,0.00,Wunderground v.1.12,2013-11-12 22:56:00,
2013-11-12 18:01:00,28.2,15.7,30.28,SW,226,0.0,1.0,59,0.00,,,0.00,Wunderground v.1.12,2013-11-12 23:01:00,
2013-11-12 18:06:00,28.0,15.9,30.29,SW,228,0.0,1.0,60,0.00,,,0.00,Wunderground v.1.12,2013-11-12 23:06:00,
2013-11-12 18:11:00,28.0,15.9,30.29,SW,216,1.0,1.0,60,0.00,,,0.00,Wunderground v.1.12,2013-11-12 23:11:00,
2013-11-12 18:16:00,27.8,16.1,30.29,SSE,150,3.0,3.0,61,0.00,,,0.00,Wunderground v.1.12,2013-11-12 23:16:00,
2013-11-12 18:21:00,27.8,15.7,30.29,SW,228,0.0,1.0,60,0.00,,,0.00,Wunderground v.1.12,2013-11-12 23:21:00,
2013-11-12 18:26:00,27.7,16.0,30.29,SW,221,0.0,1.0,61,0.00,,,0.00,Wunderground v.1.12,2013-11-12 23:26:00,
2013-11-12 18:31:00,27.5,15.8,30.29,SW,219,0.0,1.0,61,0.00,,,0.00,Wunderground v.1.12,2013-11-12 23:31:00,
2013-11-12 18:36:00,27.5,15.8,30.29,SSW,197,1.0,1.0,61,0.00,,,0.00,Wunderground v.1.12,2013-11-12 23:36:00,
2013-11-12 18:41:00,27.5,15.8,30.29,SW,225,0.0,0.0,61,0.00,,,0.00,Wunderground v.1.12,2013-11-12 23:41:00,
2013-11-12 18:46:00,27.4,15.7,30.29,SSW,213,0.0,1.0,61,0.00,,,0.00,Wunderground v.1.12,2013-11-12 23:46:00,
2013-11-12 18:51:00,27.3,16.0,30.29,SW,227,0.0,0.0,62,0.00,,,0.00,Wunderground v.1.12,2013-11-12 23:51:00,
2013-11-12 18:57:00,27.2,15.9,30.29,SW,225,0.0,0.0,62,0.00,,,0.00,Wunderground v.1.12,2013-11-12 23:57:00,
2013-11-12 19:02:00,27.2,15.9,30.29,SW,222,0.0,1.0,62,0.00,,,0.00,Wunderground v.1.12,2013-11-13 00:02:00,
2013-11-12 19:07:00,27.0,15.7,30.29,SW,226,0.0,0.0,62,0.00,,,0.00,Wunderground v.1.12,2013-11-13 00:07:00,
2013-11-12 19:12:00,26.9,16.0,30.29,SW,222,0.0,2.0,63,0.00,,,0.00,Wunderground v.1.12,2013-11-13 00:12:00,
2013-11-12 19:17:00,26.9,16.0,30.29,SW,223,0.0,1.0,63,0.00,,,0.00,Wunderground v.1.12,2013-11-13 00:17:00,
2013-11-12 19:22:00,26.7,15.8,30.29,SW,223,0.0,0.0,63,0.00,,,0.00,Wunderground v.1.12,2013-11-13 00:22:00,
2013-11-12 19:27:00,26.7,15.8,30.29,South,189,2.0,2.0,63,0.00,,,0.00,Wunderground v.1.12,2013-11-13 00:27:00,
2013-11-12 19:32:00,26.8,15.5,30.29,SW,221,0.0,1.0,62,0.00,,,0.00,Wunderground v.1.12,2013-11-13 00:32:00,
2013-11-12 19:37:00,26.7,15.8,30.30,SW,226,0.0,0.0,63,0.00,,,0.00,Wunderground v.1.12,2013-11-13 00:37:00,
2013-11-12 19:43:00,26.6,15.7,30.30,SW,223,0.0,1.0,63,0.00,,,0.00,Wunderground v.1.12,2013-11-13 00:43:00,
2013-11-12 19:48:00,26.6,15.7,30.30,SW,229,0.0,1.0,63,0.00,,,0.00,Wunderground v.1.12,2013-11-13 00:48:00,
2013-11-12 19:53:00,26.6,15.7,30.29,SW,220,0.0,1.0,63,0.00,,,0.00,Wunderground v.1.12,2013-11-13 00:53:00,
2013-11-12 19:58:00,26.6,15.7,30.29,SW,225,0.0,0.0,63,0.00,,,0.00,Wunderground v.1.12,2013-11-13 00:58:00,
2013-11-12 20:03:00,26.5,15.6,30.29,SW,229,0.0,1.0,63,0.00,,,0.00,Wunderground v.1.12,2013-11-13 01:03:00,
2013-11-12 20:08:00,26.5,15.6,30.30,SW,229,0.0,1.0,63,0.00,,,0.00,Wunderground v.1.12,2013-11-13 01:08:00,
2013-11-12 20:13:00,26.4,15.5,30.30,SW,222,0.0,0.0,63,0.00,,,0.00,Wunderground v.1.12,2013-11-13 01:13:00,
2013-11-12 20:18:00,26.4,15.5,30.30,SW,225,0.0,1.0,63,0.00,,,0.00,Wunderground v.1.12,2013-11-13 01:18:00,
2013-11-12 20:23:00,26.4,15.9,30.30,SW,223,0.0,1.0,64,0.00,,,0.00,Wunderground v.1.12,2013-11-13 01:23:00,
2013-11-12 20:28:00,26.4,15.5,30.30,SSW,207,1.0,2.0,63,0.00,,,0.00,Wunderground v.1.12,2013-11-13 01:28:00,
2013-11-12 20:33:00,26.5,15.6,30.30,SSW,199,1.0,3.0,63,0.00,,,0.00,Wunderground v.1.12,2013-11-13 01:33:00,
2013-11-12 20:38:00,26.6,15.7,30.29,SW,218,1.0,2.0,63,0.00,,,0.00,Wunderground v.1.12,2013-11-13 01:38:00,
2013-11-12 20:43:00,26.7,15.8,30.29,SSW,196,2.0,2.0,63,0.00,,,0.00,Wunderground v.1.12,2013-11-13 01:43:00,
2013-11-12 20:48:00,26.7,16.1,30.29,SW,227,0.0,1.0,64,0.00,,,0.00,Wunderground v.1.12,2013-11-13 01:48:00,
2013-11-12 20:54:00,26.6,16.1,30.30,SW,228,1.0,1.0,64,0.00,,,0.00,Wunderground v.1.12,2013-11-13 01:54:00,
2013-11-12 21:00:00,26.7,16.1,30.30,SW,235,1.0,1.0,64,0.00,,,0.00,Wunderground v.1.12,2013-11-13 02:00:00,
2013-11-12 21:05:00,26.7,16.1,30.30,SW,225,2.0,2.0,64,0.00,,,0.00,Wunderground v.1.12,2013-11-13 02:05:00,
2013-11-12 21:10:00,26.7,16.1,30.29,SW,221,0.0,1.0,64,0.00,,,0.00,Wunderground v.1.12,2013-11-13 02:10:00,
2013-11-12 21:15:00,26.6,16.1,30.29,SW,220,0.0,1.0,64,0.00,,,0.00,Wunderground v.1.12,2013-11-13 02:15:00,
2013-11-12 21:20:00,26.6,16.1,30.29,SW,225,0.0,2.0,64,0.00,,,0.00,Wunderground v.1.12,2013-11-13 02:20:00,
2013-11-12 21:25:00,26.5,16.0,30.29,SW,225,1.0,1.0,64,0.00,,,0.00,Wunderground v.1.12,2013-11-13 02:25:00,
2013-11-12 21:30:00,26.4,16.2,30.29,SW,232,0.0,3.0,65,0.00,,,0.00,Wunderground v.1.12,2013-11-13 02:30:00,
2013-11-12 21:35:00,26.3,16.1,30.29,SW,231,0.0,0.0,65,0.00,,,0.00,Wunderground v.1.12,2013-11-13 02:35:00,
2013-11-12 21:40:00,26.1,16.3,30.30,SW,224,0.0,0.0,66,0.00,,,0.00,Wunderground v.1.12,2013-11-13 02:40:00,
2013-11-12 21:45:00,26.0,16.5,30.30,SW,222,0.0,0.0,67,0.00,,,0.00,Wunderground v.1.12,2013-11-13 02:45:00,
2013-11-12 21:50:00,25.9,16.4,30.30,SW,226,0.0,0.0,67,0.00,,,0.00,Wunderground v.1.12,2013-11-13 02:50:00,
2013-11-12 21:55:00,25.9,16.4,30.30,SW,223,0.0,0.0,67,0.00,,,0.00,Wunderground v.1.12,2013-11-13 02:55:00,
2013-11-12 22:00:00,25.9,16.1,30.30,SW,232,0.0,1.0,66,0.00,,,0.00,Wunderground v.1.12,2013-11-13 03:00:00,
2013-11-12 22:05:00,26.1,15.9,30.30,SW,219,1.0,1.0,65,0.00,,,0.00,Wunderground v.1.12,2013-11-13 03:05:00,
2013-11-12 22:10:00,26.2,16.0,30.30,SW,220,0.0,1.0,65,0.00,,,0.00,Wunderground v.1.12,2013-11-13 03:10:00,
2013-11-12 22:16:00,26.2,15.7,30.30,SW,229,0.0,1.0,64,0.00,,,0.00,Wunderground v.1.12,2013-11-13 03:16:00,
2013-11-12 22:21:00,26.2,15.7,30.30,SW,225,0.0,2.0,64,0.00,,,0.00,Wunderground v.1.12,2013-11-13 03:21:00,
2013-11-12 22:26:00,26.2,15.3,30.30,SW,227,0.0,0.0,63,0.00,,,0.00,Wunderground v.1.12,2013-11-13 03:26:00,
2013-11-12 22:31:00,26.1,15.2,30.30,SW,223,0.0,0.0,63,0.00,,,0.00,Wunderground v.1.12,2013-11-13 03:31:00,
2013-11-12 22:36:00,26.0,15.1,30.30,SW,224,0.0,1.0,63,0.00,,,0.00,Wunderground v.1.12,2013-11-13 03:36:00,
2013-11-12 22:41:00,26.0,14.8,30.30,SW,221,1.0,2.0,62,0.00,,,0.00,Wunderground v.1.12,2013-11-13 03:41:00,
2013-11-12 22:46:00,26.0,14.8,30.30,South,173,1.0,1.0,62,0.00,,,0.00,Wunderground v.1.12,2013-11-13 03:46:00,
2013-11-12 22:51:00,26.0,14.8,30.30,SW,235,0.0,1.0,62,0.00,,,0.00,Wunderground v.1.12,2013-11-13 03:51:00,
2013-11-12 22:56:00,25.8,14.2,30.30,SSW,211,0.0,2.0,61,0.00,,,0.00,Wunderground v.1.12,2013-11-13 03:56:00,
2013-11-12 23:01:00,25.8,14.2,30.30,SSW,211,1.0,1.0,61,0.00,,,0.00,Wunderground v.1.12,2013-11-13 04:01:00,
2013-11-12 23:06:00,25.9,14.3,30.30,SSW,202,1.0,2.0,61,0.00,,,0.00,Wunderground v.1.12,2013-11-13 04:06:00,
2013-11-12 23:11:00,25.9,13.9,30.30,SW,222,0.0,1.0,60,0.00,,,0.00,Wunderground v.1.12,2013-11-13 04:11:00,
2013-11-12 23:17:00,25.8,13.8,30.30,SW,219,0.0,1.0,60,0.00,,,0.00,Wunderground v.1.12,2013-11-13 04:17:00,
2013-11-12 23:22:00,25.7,14.1,30.31,SW,225,0.0,2.0,61,0.00,,,0.00,Wunderground v.1.12,2013-11-13 04:22:00,
2013-11-12 23:27:00,25.6,14.0,30.31,SW,217,1.0,2.0,61,0.00,,,0.00,Wunderground v.1.12,2013-11-13 04:27:00,
2013-11-12 23:32:00,25.7,13.7,30.31,South,171,2.0,2.0,60,0.00,,,0.00,Wunderground v.1.12,2013-11-13 04:32:00,
2013-11-12 23:37:00,25.7,13.7,30.31,SW,218,1.0,2.0,60,0.00,,,0.00,Wunderground v.1.12,2013-11-13 04:37:00,
2013-11-12 23:42:00,25.7,13.7,30.31,SSW,192,1.0,3.0,60,0.00,,,0.00,Wunderground v.1.12,2013-11-13 04:42:00,
2013-11-12 23:47:00,25.8,13.8,30.31,SW,227,0.0,2.0,60,0.00,,,0.00,Wunderground v.1.12,2013-11-13 04:47:00,
2013-11-12 23:52:00,25.7,13.7,30.31,SW,233,0.0,1.0,60,0.00,,,0.00,Wunderground v.1.12,2013-11-13 04:52:00,
2013-11-12 23:57:00,25.7,13.7,30.31,SW,232,1.0,2.0,60,0.00,,,0.00,Wunderground v.1.12,2013-11-13 04:57:00,